[[{"header":{"parameterUnit":"m.s-1","parameterCategory":1,"la1":30.2991,"la2":30.254,"lo1":-89.0895,"lo2":-89.0444,"dx":0.0017,"dy":0.0017,"nx":28,"ny":28,"refTime":"2022-12-13T09:00:00:Z","depth":0,"parameterNumber":2,"parameterNumberName":"U-component_of_WINDS"},"data":[0,0,0,0,0,0,0,0,0,0,0,0,0,0,0,0,0,0,0,0,0,0,0,0,0,0,0,0,0,0,0,0,0,0,0,0,0,0,0,0,0,0,0,0,0,0,0,0,0,0,0,0,0,0,0,0,0,0,-5.6802,-5.6805,0,-5.7165,-5.7169,-5.7173,-5.7286,-5.7284,-5.7282,-5.7281,-5.7654,-5.7666,-5.7677,0,0,0,0,0,0,0,0,0,0,0,0,0,-5.6209,-5.6219,-5.6801,-5.6806,-5.681,-5.7164,-5.7169,-5.7174,-5.7286,-5.7284,-5.7282,-5.728,-5.7651,-5.7664,-5.7678,0,0,0,0,0,0,0,0,0,0,0,0,0,-5.6508,-5.6222,-5.68,-5.6909,-5.6922,-5.7163,-5.7169,-5.7175,-5.7287,-5.7284,-5.7281,-5.7279,-5.7646,-5.7663,-5.768,-5.784,0,0,-5.7733,-5.7741,0,0,0,0,0,0,0,0,-5.6491,-5.653,-5.6888,-5.6902,-5.6917,-5.7177,-5.7098,-5.7398,-5.7287,-5.7148,-5.7281,-5.7278,-5.7498,-5.7527,-5.7601,-5.7858,-5.7874,-5.7735,-5.7745,-5.7753,-5.7758,0,0,0,0,0,0,0,-5.647,-5.6515,-5.6945,-5.6893,-5.6911,-5.6941,-5.698,-5.7155,-5.7333,-5.716,-5.7169,-5.7211,-5.7505,-5.7584,-5.7611,-5.7879,-5.7734,-5.775,-5.776,-5.7767,-5.8289,-5.8292,0,0,0,0,0,0,-5.6431,-5.6497,-5.6934,-5.6956,-5.6693,-5.6954,-5.6998,-5.7096,-5.7332,-5.7365,-5.7212,-5.7214,-5.7556,-5.7591,-5.7624,-5.7829,-5.7753,-5.7769,-5.7779,-5.8285,-5.829,-5.8293,0,0,0,0,0,0,-5.6418,-5.6469,-5.6919,-5.6729,-5.6789,-5.6967,-5.7076,-5.7105,-5.7184,-5.7371,-5.7404,-5.726,-5.7555,-5.76,-5.7786,-5.7843,-5.7777,-5.7793,-5.8281,-5.8287,-5.8291,-5.8237,0,0,0,0,0,0,-5.64,-5.6463,-5.6524,-5.673,-5.6798,-5.7073,-5.708,-5.7114,-5.7213,-5.722,-5.7425,-5.7456,-5.7557,-5.776,-5.7804,-5.7866,-5.7806,-5.8277,-5.8284,-5.829,-5.8234,-5.8239,-5.8244,0,0,0,0,0,-5.6379,-5.6494,-5.6527,-5.6579,-5.6878,-5.7076,-5.7115,-5.7228,-5.7217,-5.7281,-5.7403,-5.745,-5.783,-5.7778,-5.7828,-5.7896,-5.8274,-5.8282,-5.8289,-5.8232,-5.8238,-5.8244,0,0,0,0,0,0,-5.629,-5.6523,-5.6561,-5.6747,-5.6891,-5.7094,-5.7178,-5.7231,-5.7381,-5.738,-5.7515,-5.756,-5.7737,-5.7836,-5.7773,-5.8066,-5.8054,-5.8072,-5.7993,-5.8001,-5.8006,-5.7977,-5.7821,0,0,0,0,0,-5.6292,-5.6432,-5.6628,-5.6773,-5.6843,-5.6998,-5.7088,-5.7163,-5.7318,-5.7379,-5.7514,-5.7663,-5.7817,-5.7915,-5.8067,-5.825,-5.8298,-5.8323,-5.8327,-5.833,-5.8344,-5.8451,-5.8464,-5.8319,-5.8319,-5.8318,0,0,-5.6298,-5.6442,-5.6522,-5.6759,-5.6879,-5.7022,-5.7048,-5.7198,-5.7306,-5.7402,-5.7586,-5.7691,-5.7867,-5.8052,-5.8141,-5.8141,-5.8395,-5.834,-5.8341,-5.8353,-5.846,-5.8473,-5.8485,-5.8324,-5.8323,-5.8322,0,0,-5.638,-5.6504,-5.6638,-5.6759,-5.6941,-5.7044,-5.7077,-5.7274,-5.7347,-5.7534,-5.761,-5.7742,-5.8003,-5.8126,-5.8222,-5.8357,-5.8406,-5.8403,-5.8427,-5.8529,-5.8541,-5.8551,-5.86,-5.8615,-5.8416,-5.8416,-5.8416,0,-5.6364,-5.6581,-5.6701,-5.6848,-5.6951,-5.7046,-5.7184,-5.7296,-5.7519,-5.7588,-5.7585,-5.7917,-5.8042,-5.8259,-5.8292,-5.8367,-5.8409,-5.8378,-5.8529,-5.8541,-5.8553,-5.8601,-5.8619,-5.8414,-5.8415,-5.8415,-5.8415,0,-5.6553,-5.6703,-5.679,-5.7003,-5.7116,-5.7258,-5.7401,-5.7502,-5.7568,-5.7672,-5.7863,-5.8017,-5.8203,-5.8261,-5.8326,-5.8488,-5.8482,-5.8503,-5.8493,-5.8563,-5.861,-5.8629,-5.8412,-5.8413,-5.8413,-5.8414,0,0,-5.6585,-5.6866,-5.6895,-5.6994,-5.7205,-5.7324,-5.7472,-5.7654,-5.7738,-5.789,-5.8018,-5.8239,-5.826,-5.837,-5.8451,-5.8541,-5.8639,-5.8551,-5.8558,-5.8562,-5.8828,-5.881,-5.8829,-5.8675,-5.8679,-5.8682,-5.8813,0,-5.6695,-5.6961,-5.7075,-5.7289,-5.7431,-5.7526,-5.7655,-5.7799,-5.7902,-5.8038,-5.8152,-5.8307,-5.8322,-5.839,-5.8483,-5.8607,-5.8694,-5.86,-5.8795,-5.8801,-5.8746,-5.8854,-5.8835,-5.8951,-5.8833,-5.8836,-5.8838,0,-5.6856,-5.7009,-5.7237,-5.7433,-5.7497,-5.7611,-5.7788,-5.7917,-5.8084,-5.8153,-5.8277,-5.8355,-5.8516,-5.8499,-5.8723,-5.8656,-5.8744,-5.8818,-5.8825,-5.8846,-5.8821,-5.8877,-5.8991,-5.9008,-5.8868,-5.8866,-5.8864,0,-5.6856,-5.712,-5.7291,-5.7373,-5.7606,-5.7684,-5.7785,-5.795,-5.8053,-5.8209,-5.8277,-5.845,-5.8544,-5.8677,-5.8801,-5.8776,-5.9014,-5.9007,-5.9076,-5.9073,-5.912,-5.9114,-5.9248,-5.9179,-5.9178,-5.9178,-5.9178,0,-5.6965,-5.71,-5.7295,-5.7399,-5.7556,-5.7688,-5.784,-5.7948,-5.8094,-5.8223,-5.8318,-5.8437,-5.8594,-5.8734,-5.8833,-5.9004,-5.9047,-5.9107,-5.9131,-5.9098,-5.909,-5.9155,-5.915,-5.9183,-5.9182,-5.9181,-5.918,0,-5.6989,-5.7125,-5.7318,-5.7524,-5.758,-5.7686,-5.7863,-5.797,-5.8079,-5.8241,-5.8287,-5.8458,-5.8629,-5.8766,-5.8989,-5.9055,-5.9235,-5.9263,-5.9178,-5.9191,-5.9252,-5.9244,-5.9431,-5.9463,-5.9372,-5.9373,-5.9373,0,-5.7048,-5.7155,-5.7374,-5.7467,-5.7567,-5.7716,-5.7822,-5.7958,-5.8065,-5.8266,-5.8349,-5.8526,-5.8675,-5.8943,-5.9088,-5.926,-5.9292,-5.9347,-5.9318,-5.9282,-5.9293,-5.9284,-5.9296,-5.9348,-5.9348,-5.9349,-5.9349,0,-5.7139,-5.7202,-5.735,-5.7524,-5.7648,-5.7791,-5.7937,-5.8008,-5.8171,-5.8287,-5.8463,-5.8578,-5.8807,-5.8983,-5.9171,-5.9277,-5.9341,-5.9357,-5.9382,-5.9348,-5.9294,-5.9324,-5.9185,-5.9351,-5.9351,-5.9351,-5.9351,-5.9351,-5.7183,-5.7283,-5.7453,-5.7616,-5.7741,-5.7876,-5.7987,-5.811,-5.8259,-5.8455,-5.8528,-5.8708,-5.8877,-5.9135,-5.9243,-5.9388,-5.9393,-5.9429,-5.9439,-5.9445,-5.9441,-5.9272,-5.9423,-5.9423,-5.9423,-5.9423,-5.9423,0,-5.7277,-5.7392,-5.7542,-5.7743,-5.7872,-5.7922,-5.8087,-5.8192,-5.835,-5.8501,-5.8647,-5.885,-5.9022,-5.9182,-5.9362,-5.9447,-5.9481,-5.9489,-5.9484,-5.9507,-5.9425,-5.9385,-5.9459,-5.9459,-5.9459,-5.9459,-5.9459,-5.9459,-5.7341,-5.7514,-5.7598,-5.7834,-5.795,-5.8126,-5.8216,-5.8342,-5.8464,-5.8687,-5.883,-5.8933,-5.909,-5.9282,-5.9443,-5.9486,-5.9548,-5.9548,-5.9598,-5.9518,-5.9513,-5.9508,-5.947,-5.9561,-5.9561,-5.9669,-5.967,-5.967]},{"header":{"parameterUnit":"m.s-1","parameterCategory":1,"la1":30.2991,"la2":30.254,"lo1":-89.0895,"lo2":-89.0444,"dx":0.0017,"dy":0.0017,"nx":28,"ny":28,"refTime":"2022-12-13T09:00:00:Z","depth":0,"parameterNumber":3,"parameterNumberName":"V-component_of_WINDS"},"data":[0,0,0,0,0,0,0,0,0,0,0,0,0,0,0,0,0,0,0,0,0,0,0,0,0,0,0,0,0,0,0,0,0,0,0,0,0,0,0,0,0,0,0,0,0,0,0,0,0,0,0,0,0,0,0,0,0,0,1.7881,1.7883,0,1.8122,1.8125,1.8128,1.8291,1.8292,1.8293,1.8294,1.8549,1.8554,1.856,0,0,0,0,0,0,0,0,0,0,0,0,0,1.7571,1.7576,1.7881,1.7884,1.7887,1.8122,1.8125,1.8128,1.8291,1.8292,1.8293,1.8295,1.8547,1.8553,1.856,0,0,0,0,0,0,0,0,0,0,0,0,0,1.7748,1.7578,1.788,1.7996,1.8009,1.8121,1.8125,1.8129,1.829,1.8292,1.8294,1.8295,1.8544,1.8553,1.8561,1.858,0,0,1.8587,1.8591,0,0,0,0,0,0,0,0,1.7738,1.776,1.7976,1.7988,1.8003,1.8178,1.8109,1.828,1.829,1.8184,1.8294,1.8296,1.8424,1.8443,1.8485,1.8592,1.8603,1.8588,1.8593,1.8597,1.8599,0,0,0,0,0,0,0,1.7726,1.775,1.7976,1.7979,1.7995,1.8039,1.8066,1.8143,1.8292,1.8193,1.8205,1.8231,1.8432,1.8476,1.8492,1.8606,1.8588,1.8596,1.8601,1.8604,1.8747,1.8746,0,0,0,0,0,0,1.7694,1.7739,1.7969,1.7984,1.7872,1.8043,1.8074,1.812,1.8291,1.8319,1.823,1.8238,1.846,1.8482,1.8501,1.8538,1.8597,1.8605,1.861,1.8749,1.8747,1.8746,0,0,0,0,0,0,1.7687,1.7713,1.7959,1.7865,1.7899,1.8047,1.8098,1.8124,1.8168,1.8319,1.8347,1.8246,1.8463,1.8489,1.856,1.8549,1.8609,1.8617,1.875,1.8748,1.8746,1.8607,0,0,0,0,0,0,1.7677,1.7709,1.7715,1.7864,1.7904,1.8009,1.8097,1.8127,1.8181,1.8195,1.8342,1.8368,1.8466,1.8546,1.8568,1.8561,1.8623,1.8752,1.8749,1.8747,1.8614,1.8601,1.859,0,0,0,0,0,1.7665,1.7667,1.7714,1.7741,1.7913,1.8008,1.8032,1.8142,1.8179,1.8189,1.8287,1.8363,1.8546,1.8552,1.8578,1.8574,1.8753,1.875,1.8747,1.8619,1.8603,1.859,0,0,0,0,0,0,1.7514,1.7688,1.7743,1.7791,1.7884,1.8036,1.805,1.8122,1.8207,1.8216,1.8352,1.8384,1.8442,1.8516,1.8519,1.8604,1.8659,1.8661,1.8553,1.8539,1.8528,1.8509,1.863,0,0,0,0,0,1.7486,1.7546,1.7696,1.7725,1.7768,1.79,1.7946,1.8024,1.8126,1.8166,1.8269,1.8368,1.8449,1.8498,1.858,1.8626,1.8663,1.8636,1.8624,1.8614,1.8614,1.8648,1.8639,1.8736,1.8736,1.8736,0,0,1.7429,1.7532,1.7561,1.7697,1.7777,1.784,1.7932,1.7993,1.8042,1.8177,1.8249,1.8328,1.8448,1.8507,1.8538,1.857,1.8596,1.861,1.86,1.8607,1.8644,1.8635,1.8627,1.8734,1.8734,1.8734,0,0,1.7358,1.744,1.7474,1.7554,1.7674,1.7763,1.7771,1.7914,1.7971,1.8046,1.8149,1.8212,1.8346,1.8428,1.8487,1.8452,1.8528,1.8475,1.8413,1.8445,1.8437,1.8431,1.8421,1.8416,1.8475,1.8475,1.8475,0,1.7273,1.7367,1.7484,1.7539,1.7598,1.7722,1.776,1.7833,1.7974,1.8014,1.8047,1.8221,1.831,1.8392,1.8384,1.8427,1.8444,1.8458,1.8428,1.8424,1.842,1.8412,1.8408,1.8468,1.8469,1.8469,1.847,0,1.7258,1.7323,1.7337,1.7469,1.753,1.7576,1.7704,1.7752,1.7826,1.7912,1.799,1.8102,1.821,1.8236,1.8308,1.833,1.8346,1.8402,1.8461,1.8402,1.8397,1.8394,1.8458,1.846,1.8462,1.8464,0,0,1.7095,1.7294,1.7297,1.736,1.7505,1.7559,1.7614,1.7718,1.7758,1.7854,1.7906,1.8019,1.8073,1.814,1.8224,1.8251,1.822,1.8305,1.8311,1.8287,1.8255,1.8212,1.8206,1.8272,1.8271,1.8271,1.8245,0,1.7047,1.7147,1.7256,1.7321,1.7385,1.7505,1.7554,1.765,1.7734,1.7804,1.7898,1.7976,1.804,1.8082,1.8115,1.8216,1.8216,1.822,1.8325,1.8327,1.829,1.8203,1.8157,1.8127,1.8244,1.8244,1.8244,0,1.7002,1.709,1.716,1.7303,1.7334,1.7374,1.7482,1.7545,1.7659,1.7719,1.7795,1.7885,1.7954,1.8005,1.8104,1.8105,1.8155,1.8212,1.8214,1.8228,1.8281,1.8216,1.812,1.8115,1.8241,1.8241,1.8242,0,1.6879,1.7015,1.7076,1.7127,1.7293,1.732,1.7391,1.7506,1.7564,1.7659,1.7698,1.78,1.7857,1.7936,1.8053,1.8079,1.8141,1.8201,1.8196,1.8192,1.8203,1.82,1.8113,1.8233,1.8233,1.8233,1.8233,0,1.6813,1.6852,1.7023,1.706,1.7109,1.7237,1.7283,1.7366,1.7468,1.7527,1.7639,1.7693,1.7843,1.7916,1.8009,1.8079,1.8103,1.8156,1.8181,1.8146,1.814,1.8181,1.8187,1.8232,1.8232,1.8233,1.8233,0,1.6682,1.6798,1.6873,1.7025,1.7065,1.7094,1.7227,1.727,1.7361,1.7435,1.746,1.7604,1.7697,1.7821,1.7953,1.8015,1.8074,1.8112,1.8034,1.8049,1.8037,1.8036,1.7974,1.7974,1.809,1.8089,1.8088,0,1.6633,1.6666,1.6822,1.6868,1.6935,1.7008,1.7067,1.7196,1.7254,1.7388,1.7416,1.7517,1.7604,1.7747,1.7866,1.7968,1.801,1.7981,1.8026,1.7992,1.8012,1.8009,1.8015,1.797,1.7968,1.7966,1.7965,0,1.6534,1.659,1.6669,1.677,1.6837,1.6923,1.7014,1.7047,1.7196,1.7256,1.735,1.7418,1.7553,1.7653,1.7771,1.785,1.7934,1.795,1.7955,1.792,1.7875,1.7901,1.8005,1.7951,1.7952,1.7953,1.7954,1.7955,1.6444,1.648,1.6596,1.6682,1.6764,1.6848,1.6896,1.6994,1.7074,1.7192,1.7265,1.7357,1.7476,1.7644,1.7719,1.7797,1.783,1.7835,1.7837,1.7837,1.7826,1.7862,1.7819,1.782,1.782,1.7821,1.7821,0,1.6352,1.6433,1.6511,1.6635,1.6704,1.6774,1.6881,1.6935,1.7013,1.7116,1.7199,1.7311,1.7409,1.7537,1.7646,1.7684,1.7725,1.7708,1.7707,1.7725,1.779,1.7775,1.7673,1.7673,1.7673,1.7673,1.7673,1.7673,1.6312,1.6378,1.6449,1.6558,1.6641,1.673,1.6785,1.6865,1.6947,1.7065,1.7147,1.7229,1.7344,1.7462,1.7558,1.7594,1.7629,1.7601,1.7648,1.7706,1.7719,1.7732,1.772,1.7607,1.7607,1.7577,1.7577,1.7576]}]]